Location: Dead Woman Crossing
(43.5369°N, 106.3228°W)
Time: 08:05:00
(UTC+00:00)

FO-29 - Visible Passes

Search period start: 06 December 2023 00:00
Search period end: 16 December 2023 00:00
Orbit: 800 x 1321 km, 98.6° (Epoch: 05 December)

Date Brightness Start Highest point End Pass type
(mag) Time Alt. Az. Time Alt. Az. Time Alt. Az.
06 Dec 12.0 10:05:26 10° NNE 10:06:43 16° NNE 10:06:43 16° NNE visible
06 Dec 11.7 11:51:33 10° N 11:53:11 16° NNW 11:53:11 16° NNW visible
07 Dec 12.5 09:10:47 10° NNE 09:10:51 10° NNE 09:10:51 10° NNE visible
07 Dec 11.8 10:55:36 10° N 10:57:19 18° N 10:57:19 18° N visible
07 Dec 11.8 12:43:44 10° NNW 12:43:47 10° NNW 12:43:47 10° NNW visible
08 Dec 12.1 10:00:19 10° NNE 10:01:27 15° NNE 10:01:27 15° NNE visible
08 Dec 11.7 11:46:19 10° N 11:47:56 16° NNW 11:47:56 16° NNW visible
09 Dec 11.8 10:50:27 10° N 10:52:04 18° N 10:52:04 18° N visible
09 Dec 11.9 12:38:14 10° NNW 12:38:32 11° NNW 12:38:32 11° NNW visible
10 Dec 12.2 09:55:14 10° NNE 09:56:13 15° NNE 09:56:13 15° NNE visible
10 Dec 11.7 11:41:07 10° N 11:42:41 16° NNW 11:42:41 16° NNW visible
11 Dec 11.9 10:45:19 10° N 10:46:50 17° N 10:46:50 17° N visible
11 Dec 11.9 12:32:49 10° NNW 12:33:18 11° NNW 12:33:18 11° NNW visible
12 Dec 12.3 09:50:09 10° NNE 09:50:58 14° NNE 09:50:58 14° NNE visible
12 Dec 11.8 11:35:56 10° N 11:37:27 16° NNW 11:37:27 16° NNW visible
13 Dec 11.9 10:40:12 10° N 10:41:35 17° N 10:41:35 17° N visible
13 Dec 11.9 12:27:29 10° NNW 12:28:04 11° NNW 12:28:04 11° NNW visible
14 Dec 12.3 09:45:05 10° NNE 09:45:44 13° NNE 09:45:44 13° NNE visible
14 Dec 11.8 11:30:46 10° N 11:32:13 16° N 11:32:13 16° N visible
15 Dec 12.0 10:35:06 10° N 10:36:22 16° N 10:36:22 16° N visible
15 Dec 11.9 12:22:11 10° NNW 12:22:50 11° NNW 12:22:50 11° NNW visible
